TimeCST,TemperatureF,Dew PointF,Humidity,Sea Level PressureIn,VisibilityMPH,Wind Direction,Wind SpeedMPH,Gust SpeedMPH,PrecipitationIn,Events,Conditions,WindDirDegrees,DateUTC
12:41 AM,37.4,35.6,93,30.49,4.0,NW,9.2,-,0.00,Rain,Light Rain,310,2013-11-24 06:41:00
12:51 AM,37.4,35.6,93,30.50,4.0,NW,8.1,-,0.00,Rain,Light Rain,320,2013-11-24 06:51:00
12:53 AM,37.9,36.0,93,30.50,5.0,NW,9.2,-,0.00,Rain,Light Rain,320,2013-11-24 06:53:00
1:02 AM,37.4,35.6,93,30.49,6.0,NW,12.7,-,0.00,,Overcast,320,2013-11-24 07:02:00
1:11 AM,37.4,35.6,93,30.49,5.0,NW,11.5,-,0.00,,Overcast,320,2013-11-24 07:11:00
1:21 AM,37.4,35.6,93,30.50,5.0,NW,10.4,-,0.00,,Overcast,320,2013-11-24 07:21:00
1:41 AM,37.4,35.6,93,30.49,10.0,NW,6.9,-,0.00,,Overcast,320,2013-11-24 07:41:00
1:53 AM,37.9,36.0,93,30.50,10.0,NW,10.4,16.1,0.00,,Overcast,310,2013-11-24 07:53:00
2:36 AM,37.4,35.6,93,30.46,4.0,North,10.4,-,0.08,Rain,Heavy Rain,350,2013-11-24 08:36:00
2:53 AM,37.0,35.1,93,30.48,3.0,NNW,8.1,-,0.18,Rain,Heavy Rain,330,2013-11-24 08:53:00
3:53 AM,37.0,35.1,93,30.46,10.0,NNW,9.2,-,0.07,Rain,Light Rain,330,2013-11-24 09:53:00
4:48 AM,37.4,33.8,87,30.46,10.0,NW,8.1,-,0.00,,Overcast,320,2013-11-24 10:48:00
4:53 AM,37.0,34.0,89,30.46,10.0,NNW,9.2,-,0.00,,Overcast,330,2013-11-24 10:53:00
5:07 AM,37.4,33.8,87,30.46,10.0,NNW,6.9,-,N/A,,Overcast,330,2013-11-24 11:07:00
5:24 AM,37.4,35.6,93,30.47,10.0,WNW,8.1,-,N/A,,Overcast,300,2013-11-24 11:24:00
5:53 AM,37.0,35.1,93,30.46,10.0,NW,5.8,-,N/A,,Overcast,310,2013-11-24 11:53:00
6:06 AM,37.4,35.6,93,30.46,10.0,NW,6.9,-,N/A,,Overcast,310,2013-11-24 12:06:00
6:17 AM,37.4,35.6,93,30.46,10.0,NW,8.1,-,N/A,,Overcast,310,2013-11-24 12:17:00
6:53 AM,37.9,35.1,89,30.47,10.0,NNW,3.5,-,N/A,,Overcast,330,2013-11-24 12:53:00
7:53 AM,37.9,35.1,89,30.48,10.0,NW,5.8,-,N/A,,Overcast,320,2013-11-24 13:53:00
8:53 AM,39.0,36.0,89,30.48,10.0,NW,4.6,-,N/A,,Overcast,320,2013-11-24 14:53:00
8:59 AM,39.2,35.6,87,30.49,10.0,NW,5.8,-,N/A,,Overcast,320,2013-11-24 14:59:00
9:14 AM,39.2,35.6,87,30.49,8.0,NNW,6.9,-,N/A,,Overcast,330,2013-11-24 15:14:00
9:24 AM,39.2,35.6,87,30.49,4.0,NNW,3.5,-,N/A,,Overcast,340,2013-11-24 15:24:00
9:35 AM,39.2,35.6,87,30.48,3.0,NNW,3.5,-,N/A,,Overcast,340,2013-11-24 15:35:00
9:39 AM,37.4,37.4,100,30.48,2.0,NNW,5.8,-,0.00,Rain,Light Rain,330,2013-11-24 15:39:00
9:53 AM,37.9,36.0,93,30.49,4.0,NNE,5.8,-,0.01,Rain,Light Rain,20,2013-11-24 15:53:00
10:02 AM,39.2,35.6,87,30.48,6.0,North,3.5,-,0.00,Rain,Light Rain,10,2013-11-24 16:02:00
10:53 AM,39.0,36.0,89,30.48,10.0,North,5.8,-,0.00,,Overcast,10,2013-11-24 16:53:00
11:00 AM,39.2,35.6,87,30.47,9.0,North,5.8,-,N/A,,Overcast,350,2013-11-24 17:00:00
11:53 AM,39.9,36.0,86,30.44,10.0,Variable,4.6,-,N/A,,Overcast,0,2013-11-24 17:53:00
12:13 PM,39.2,35.6,87,30.42,10.0,North,6.9,-,0.00,Rain,Light Rain,10,2013-11-24 18:13:00
12:28 PM,39.2,35.6,87,30.41,10.0,NNE,4.6,-,0.00,,Overcast,20,2013-11-24 18:28:00
12:53 PM,39.9,36.0,86,30.40,10.0,Calm,Calm,-,0.01,Rain,Light Rain,0,2013-11-24 18:53:00
1:21 PM,41.0,35.6,81,30.37,10.0,Calm,Calm,-,0.00,,Overcast,0,2013-11-24 19:21:00
1:49 PM,41.0,35.6,81,30.35,10.0,East,3.5,-,0.00,,Overcast,80,2013-11-24 19:49:00
1:53 PM,42.1,37.0,82,30.36,10.0,ENE,3.5,-,0.00,,Overcast,70,2013-11-24 19:53:00
2:53 PM,42.1,36.0,79,30.35,10.0,East,4.6,-,N/A,,Overcast,90,2013-11-24 20:53:00
3:53 PM,42.1,36.0,79,30.34,10.0,East,3.5,-,N/A,,Overcast,80,2013-11-24 21:53:00
4:53 PM,42.1,36.0,79,30.32,10.0,ENE,3.5,-,N/A,,Overcast,70,2013-11-24 22:53:00
5:53 PM,42.1,36.0,79,30.32,10.0,Calm,Calm,-,N/A,,Overcast,0,2013-11-24 23:53:00
6:53 PM,41.0,37.0,86,30.32,10.0,Calm,Calm,-,0.01,Rain,Light Rain,0,2013-11-25 00:53:00
7:53 PM,41.0,37.9,89,30.32,10.0,Calm,Calm,-,0.00,,Overcast,0,2013-11-25 01:53:00
8:49 PM,39.2,37.4,93,30.32,10.0,ENE,4.6,-,N/A,,Overcast,70,2013-11-25 02:49:00
8:53 PM,41.0,37.0,86,30.32,10.0,East,3.5,-,N/A,,Overcast,80,2013-11-25 02:53:00
9:37 PM,39.2,37.4,93,30.32,3.0,Calm,Calm,-,0.00,Rain,Light Rain,0,2013-11-25 03:37:00
9:45 PM,39.2,37.4,93,30.33,2.5,East,4.6,-,0.01,Rain,Light Rain,80,2013-11-25 03:45:00
9:53 PM,39.9,37.9,93,30.35,3.0,Calm,Calm,-,0.01,,Overcast,0,2013-11-25 03:53:00
10:09 PM,39.2,39.2,100,30.33,2.5,Calm,Calm,-,0.01,,Overcast,0,2013-11-25 04:09:00
10:17 PM,39.2,39.2,100,30.32,2.0,East,3.5,-,0.02,Rain,Light Rain,90,2013-11-25 04:17:00
10:45 PM,39.2,37.4,93,30.30,3.0,ENE,5.8,-,0.02,,Overcast,70,2013-11-25 04:45:00
10:53 PM,39.9,37.9,93,30.30,5.0,ENE,4.6,-,0.02,,Overcast,60,2013-11-25 04:53:00
11:02 PM,39.2,37.4,93,30.31,8.0,NE,3.5,-,N/A,,Overcast,40,2013-11-25 05:02:00
11:19 PM,39.2,39.2,100,30.31,7.0,Calm,Calm,-,N/A,,Overcast,0,2013-11-25 05:19:00
11:50 PM,39.2,37.4,93,30.31,8.0,Calm,Calm,-,N/A,,Overcast,0,2013-11-25 05:50:00
11:53 PM,39.9,37.9,93,30.32,6.0,Calm,Calm,-,N/A,,Overcast,0,2013-11-25 05:53:00